Theta_e
326 326 326 326 326 326 326 326 327 327 327 327 327 327 325 324 322 310 302 309 318 329 320 303 303 301 301 302 302 299 292 288 290 290 293 295 294 296 296 295 295 296 296 299 304
325 325 325 325 325 325 325 325 326 326 326 326 327 326 324 323 306 302 317 327 328 324 302 301 300 299 297 298 299 295 290 291 293 293 294 294 293 294 295 294 294 294 296 297 303
324 322 323 323 324 323 324 323 324 325 326 326 326 326 323 317 300 300 324 327 326 316 302 301 300 299 297 296 296 295 291 293 294 295 295 294 293 294 292 293 295 296 297 297 299
322 321 322 322 322 322 322 322 324 324 326 325 326 325 322 307 291 302 322 321 320 304 301 299 299 297 294 293 294 292 294 293 296 295 294 293 294 293 293 297 298 297 295 294 294
321 321 320 319 320 320 320 321 324 324 325 325 326 323 308 298 297 303 317 311 302 301 298 297 296 296 294 293 293 291 292 293 293 293 293 292 293 292 292 297 296 295 295 297 297
320 319 317 317 318 319 319 320 323 324 324 326 325 321 300 295 303 302 303 303 300 299 297 298 296 296 295 292 291 291 291 292 292 292 292 292 292 292 294 294 295 297 299 298 297
319 317 316 316 317 317 317 320 323 323 324 326 323 310 301 299 301 301 304 299 299 298 296 297 297 297 295 293 293 291 289 291 293 292 292 290 289 289 294 294 298 297 296 296 296
317 315 315 315 315 316 318 320 322 322 324 323 318 305 298 306 301 308 304 301 300 298 298 297 297 296 293 294 291 289 289 287 293 292 294 294 289 294 297 297 296 295 295 295 296
315 314 314 314 314 316 318 320 321 323 323 321 305 300 295 310 305 306 301 298 298 298 296 298 296 292 292 289 287 288 285 285 288 291 291 292 289 295 298 294 294 295 295 294 294
314 313 313 313 314 316 319 320 320 314 310 308 305 296 301 299 304 304 301 297 296 295 296 295 291 289 288 289 283 285 283 285 285 290 289 289 290 294 295 293 294 293 292 293 292
313 312 312 313 315 318 313 305 298 297 300 298 297 297 300 305 303 300 297 296 295 294 290 291 287 286 287 287 287 286 284 284 288 291 289 289 289 291 291 292 291 290 291 291 290
312 311 311 312 315 316 308 303 298 299 296 299 301 301 303 302 294 297 298 294 293 289 291 290 284 289 290 289 287 287 284 285 289 290 289 287 287 290 289 290 289 288 290 288 289
311 311 311 312 315 308 302 299 302 302 292 294 298 299 299 296 292 294 295 292 291 289 287 286 288 290 289 288 287 285 284 284 284 288 288 285 283 285 289 290 288 288 289 288 288
310 310 310 313 302 302 299 302 301 299 287 289 294 296 295 294 290 294 293 293 291 287 287 286 289 288 287 286 286 284 286 286 284 281 277 284 275 283 286 286 285 284 284 286 287
310 309 309 310 297 300 301 302 298 293 282 292 294 298 296 292 292 293 294 293 288 286 285 281 285 285 285 285 287 286 287 285 283 281 278 279 276 280 284 281 282 282 284 285 288
309 308 309 303 299 300 302 298 294 289 282 288 293 292 290 290 292 294 292 293 289 286 285 285 287 286 286 287 286 287 283 283 281 278 274 277 274 276 280 280 280 282 283 284 287
308 308 306 304 295 301 301 291 288 283 290 286 286 290 286 286 288 289 286 285 283 278 279 284 284 287 287 282 285 281 279 273 270 270 271 276 273 275 280 283 280 280 282 283 285
308 308 305 305 301 300 291 289 281 288 288 288 288 287 285 285 285 285 281 279 283 282 280 277 275 283 284 284 281 278 280 271 264 266 269 275 271 278 279 281 282 282 283 283 285
306 300 301 301 302 299 288 280 285 286 287 286 287 280 281 286 281 279 279 280 279 280 278 277 276 283 281 282 281 277 273 280 273 262 265 271 275 279 279 279 281 281 282 282 284
298 296 295 302 302 295 284 285 285 287 291 290 283 283 277 283 281 277 277 282 280 280 280 279 274 279 281 281 278 276 277 272 271 258 258 267 270 271 275 276 279 279 280 281 282
297 285 294 302 300 292 281 281 285 287 293 289 285 282 281 282 280 278 276 279 280 278 279 276 275 275 276 273 271 274 272 273 272 269 262 261 268 275 276 277 277 279 280 280 281
298 284 296 301 290 287 283 285 292 291 290 290 287 286 283 282 279 278 279 279 280 279 274 275 275 269 271 275 276 275 273 273 266 265 267 267 266 278 278 279 279 278 279 280 281
294 290 304 302 287 284 287 289 291 289 289 289 286 287 283 281 279 280 279 280 280 278 276 277 273 265 269 272 273 272 274 275 273 272 266 264 266 278 278 278 278 277 279 280 281
293 286 295 299 294 288 285 286 288 291 289 288 284 283 281 279 279 279 278 279 281 278 284 280 274 272 267 270 272 271 273 274 272 267 267 268 269 273 275 275 277 278 279 280 280
294 289 294 289 290 289 289 289 287 286 288 286 281 282 281 278 277 277 278 278 279 281 279 278 271 274 274 275 273 272 272 273 271 271 268 269 270 272 274 275 277 279 279 278 277
291 289 292 290 290 291 290 287 286 286 286 283 281 282 282 279 280 277 277 277 277 278 277 277 272 273 270 273 273 271 273 273 272 272 271 270 269 276 277 278 277 277 276 275 276
296 295 293 291 288 289 289 288 287 288 288 288 284 282 279 281 281 281 281 281 279 277 276 275 273 267 263 270 269 264 270 271 271 271 270 267 272 275 275 276 276 274 274 275 272
Wind_Speed
17 18 19 20 21 19 19 17 15 14 14 15 14 11 12 12 6 1 8 4 7 13 6 4 4 6 4 4 3 3 4 2 4 5 6 3 3 2 1 3 3 7 5 4 2
18 19 20 22 22 21 20 19 16 15 15 14 14 11 10 10 3 10 2 6 8 10 5 6 6 6 4 3 3 5 3 7 4 4 5 4 4 2 3 3 5 6 6 8 3
18 19 21 21 22 23 22 22 19 18 17 15 15 11 9 4 5 3 7 8 8 5 1 1 2 3 4 1 2 2 5 3 5 5 3 5 7 2 2 6 8 8 7 6 4
17 20 20 21 22 24 23 23 21 18 16 15 12 11 7 2 2 1 8 9 8 3 3 3 5 4 2 0 1 2 6 4 3 1 1 6 8 6 6 12 2 6 5 6 11
17 17 19 21 23 24 25 23 21 19 16 14 11 10 1 7 2 2 7 8 3 4 5 3 3 2 0 2 4 2 5 4 1 5 7 4 11 6 8 16 10 9 6 12 12
14 15 18 21 23 25 26 24 20 21 18 12 10 11 1 5 2 6 7 5 5 6 5 6 2 1 0 1 1 3 5 14 8 6 5 6 5 3 7 5 10 13 16 12 13
13 15 18 20 23 24 26 26 20 22 16 10 6 2 7 2 2 3 7 3 3 3 2 1 1 1 2 3 2 2 6 10 1 3 1 2 5 6 6 7 17 13 7 8 10
14 15 18 20 22 23 25 27 22 21 11 2 2 2 4 1 2 4 6 2 5 4 3 2 1 3 1 2 5 5 4 6 8 8 5 5 7 1 6 15 14 12 9 7 12
14 16 18 21 21 23 26 28 25 10 3 1 3 3 2 0 4 4 3 3 4 3 4 3 4 3 4 4 5 7 5 5 12 5 8 4 18 3 15 5 10 8 12 12 13
12 15 18 19 20 22 26 25 14 3 3 0 3 4 5 3 5 5 2 3 3 2 2 8 6 4 5 7 3 7 5 4 8 8 5 13 19 20 13 11 8 12 9 11 12
12 15 18 18 20 21 13 7 11 9 13 1 5 3 5 8 2 1 4 4 1 9 6 5 7 1 2 1 3 5 4 12 6 7 8 16 24 24 10 6 9 11 8 11 14
11 15 17 19 20 14 4 8 3 3 9 1 2 5 4 1 4 4 6 3 6 6 5 8 2 2 4 2 2 4 6 14 10 2 1 13 35 18 12 9 13 11 11 13 14
10 14 17 19 11 6 6 3 1 4 0 7 3 2 3 1 1 6 7 2 5 4 2 5 5 4 2 4 5 4 5 6 12 18 10 12 23 20 8 14 13 12 5 11 9
10 14 17 21 6 0 3 3 1 2 4 4 2 1 1 1 1 3 2 1 3 1 1 5 3 1 4 3 2 4 1 7 11 14 15 11 19 12 4 9 8 11 7 16 12
9 12 14 11 1 3 2 4 3 2 6 3 1 1 3 2 4 1 3 4 3 2 6 7 2 2 3 3 1 6 3 7 10 17 8 5 3 6 8 10 9 11 12 15 10
7 10 11 3 3 2 3 3 2 6 8 2 1 5 3 5 6 8 6 8 2 3 2 6 3 1 3 1 4 6 6 10 2 3 2 3 4 7 4 4 11 9 14 17 16
5 8 3 1 2 2 1 1 6 4 3 2 2 3 1 4 3 6 5 8 3 7 4 8 2 2 3 3 5 12 6 6 7 5 7 5 14 4 4 5 4 9 20 27 26
3 3 2 2 1 1 2 7 4 5 7 2 1 2 5 2 0 4 3 2 5 2 0 2 5 4 2 3 3 2 2 4 8 3 17 14 7 3 5 18 14 13 22 29 26
1 1 0 2 1 1 6 2 9 7 2 1 5 2 2 3 1 1 2 5 3 2 4 1 5 3 4 1 3 1 2 1 3 3 4 7 6 17 10 18 17 13 25 25 23
2 1 2 2 2 4 5 8 7 4 5 2 5 4 4 4 3 2 5 3 5 1 1 1 5 2 2 3 6 7 0 1 3 5 7 13 15 7 19 21 17 26 28 26 26
3 2 3 2 2 5 6 9 6 4 5 8 7 5 7 6 6 5 5 1 3 2 4 2 2 2 3 3 4 2 2 1 3 4 5 7 14 2 19 14 25 27 25 26 27
3 2 3 3 3 1 4 7 4 5 3 6 4 9 9 8 6 5 6 2 4 6 4 0 3 4 8 7 5 6 5 4 4 6 5 10 20 19 10 25 24 25 26 28 28
3 2 1 2 6 5 4 5 7 7 7 8 8 6 3 7 4 6 4 2 6 5 7 6 0 5 5 3 2 3 4 4 3 5 15 7 10 7 25 24 23 25 28 31 31
4 3 2 3 1 6 6 6 7 4 4 3 4 5 4 5 1 4 5 6 3 3 6 4 4 8 8 6 1 9 10 8 5 6 9 15 29 28 27 26 25 27 30 37 34
4 7 6 7 9 13 9 5 9 9 4 4 1 6 8 7 4 5 4 4 4 6 4 5 6 6 9 12 10 13 22 14 12 15 14 26 25 26 26 26 26 31 33 36 37
7 6 2 3 1 19 17 13 18 5 8 5 6 10 9 7 9 9 8 6 5 3 5 3 3 3 6 15 12 16 18 15 16 17 16 18 24 19 25 24 28 32 40 36 30
3 2 2 6 9 10 11 14 13 9 7 6 10 7 7 8 5 3 4 6 8 9 6 6 2 2 7 5 6 10 10 11 8 7 8 14 25 19 27 29 30 31 34 30 35
Wind_Direction
3 360 356 352 345 345 343 345 342 340 339 335 340 344 347 344 320 49 49 291 300 316 328 299 41 360 41 68 67 127 70 200 234 175 259 253 264 225 163 251 231 210 229 264 40
359 356 353 350 341 342 341 344 343 342 339 337 338 338 349 342 51 56 300 315 318 335 21 29 2 6 50 41 29 76 105 218 207 205 260 281 250 236 310 282 262 281 270 284 313
357 353 349 345 339 338 341 342 342 341 340 341 335 334 339 332 72 347 346 333 330 351 21 60 41 71 70 356 28 167 206 205 246 245 289 280 295 199 182 292 239 271 321 332 282
355 349 343 340 338 338 340 339 335 336 334 331 328 332 338 87 95 345 341 334 335 342 64 34 21 32 80 353 292 290 250 224 264 240 18 285 305 290 178 252 47 319 312 293 295
354 343 341 339 338 335 336 333 330 329 331 325 327 339 120 49 155 354 339 346 44 42 50 45 65 124 98 288 325 203 285 290 184 229 243 337 264 246 250 266 325 332 332 316 319
349 345 343 339 335 333 330 325 330 326 328 320 331 328 50 82 67 357 337 26 34 45 22 26 64 354 62 280 204 305 305 292 297 292 194 174 253 354 272 4 348 346 329 324 323
350 348 343 337 332 330 326 322 329 323 321 325 340 9 59 104 33 336 15 25 5 52 81 360 329 133 152 304 318 337 336 320 263 353 297 193 284 225 278 6 330 328 314 309 345
349 353 340 332 331 330 325 318 324 315 318 9 351 58 90 292 223 26 345 16 25 56 88 38 273 109 85 323 6 11 62 356 304 2 303 50 283 192 12 337 320 324 329 15 47
353 350 336 330 335 331 324 312 315 314 18 169 63 70 130 329 40 322 12 338 308 59 42 74 57 68 19 35 8 6 304 300 324 357 340 45 299 179 328 306 313 328 23 54 24
356 343 330 331 338 333 322 306 299 13 0 319 66 48 11 323 307 331 313 13 6 313 57 40 39 41 31 40 314 286 306 246 285 294 327 299 292 309 343 330 329 35 55 42 19
351 337 330 336 342 336 343 360 12 352 45 32 304 267 315 300 284 14 354 7 332 64 22 7 39 285 259 221 266 263 268 282 279 284 345 308 301 317 2 329 49 52 39 31 10
347 336 331 342 343 338 31 70 120 173 310 270 247 279 241 291 339 347 6 55 48 59 351 8 293 276 288 166 294 317 319 306 296 181 359 302 295 316 340 320 89 48 49 27 5
346 337 337 342 338 34 60 79 277 155 345 304 228 247 275 52 73 304 11 50 71 71 60 173 256 307 305 344 341 289 271 301 283 316 212 266 296 317 357 74 47 38 48 20 358
352 345 346 332 69 69 57 313 310 151 51 269 252 283 148 123 84 304 305 167 45 63 294 234 282 18 20 318 218 295 78 266 300 334 299 43 287 336 311 113 60 25 38 0 355
352 350 353 29 173 64 298 307 137 64 359 249 218 141 308 86 303 335 317 356 132 270 95 257 270 0 356 257 227 255 323 271 285 287 326 261 232 274 19 11 9 16 6 358 340
351 346 347 36 56 145 295 131 26 37 259 356 340 345 14 31 356 311 20 39 97 86 35 249 8 68 178 124 68 285 332 293 322 1 276 174 118 307 60 350 9 359 360 354 346
337 342 35 135 159 275 136 74 22 163 321 253 249 55 58 292 345 26 41 12 35 5 13 334 23 67 15 30 355 21 17 319 343 340 250 352 332 222 63 60 354 1 353 351 339
325 18 56 107 219 163 113 45 189 240 247 35 345 229 222 8 267 351 94 113 18 67 123 148 322 158 6 111 219 311 142 143 292 267 299 315 226 273 42 15 3 1 345 338 330
64 18 58 184 225 114 80 116 218 212 224 340 329 330 269 259 258 32 114 155 200 210 200 262 263 75 69 298 132 38 62 255 281 352 337 250 264 303 19 353 349 337 336 323 318
94 50 238 202 163 72 91 224 230 193 130 101 176 204 249 215 235 226 196 173 185 201 282 169 298 359 261 124 25 123 119 53 31 316 289 285 303 264 343 337 330 331 325 321 317
81 31 211 173 109 65 194 222 246 211 157 174 199 245 227 212 214 214 218 123 164 72 50 121 154 264 234 167 153 113 100 131 193 189 220 293 293 307 324 316 327 320 315 313 312
148 236 204 150 101 185 194 198 187 199 189 243 192 209 199 178 203 243 222 58 161 142 134 317 136 264 240 293 186 120 161 165 145 267 238 277 273 283 286 326 317 317 312 311 311
201 205 213 185 207 221 242 245 207 177 199 192 219 196 126 176 218 191 131 99 149 152 164 172 169 333 347 18 317 164 180 191 217 262 255 251 265 302 313 312 320 318 316 311 314
138 217 216 236 129 212 190 225 219 207 220 172 156 112 127 193 193 184 144 197 201 215 149 144 201 206 221 246 133 268 254 256 203 240 269 254 289 299 309 317 325 321 318 313 315
158 225 193 196 217 214 182 176 196 195 186 161 222 202 175 183 176 196 134 151 195 189 160 164 231 230 252 271 263 267 271 272 252 249 256 284 288 297 309 320 324 321 315 314 313
164 166 224 273 143 198 198 201 212 187 168 190 217 203 190 185 191 184 153 177 181 141 152 178 270 318 264 243 250 256 260 266 265 266 270 275 285 307 312 320 325 326 315 317 318
148 86 161 187 163 181 212 211 206 156 217 196 209 160 190 214 151 155 137 158 151 155 159 160 213 41 267 340 303 276 229 229 254 242 239 285 303 319 320 324 325 319 307 322 323